Wind_Speed
77 79 82 81 87 89 91 94 95 96 95 90 90 78 47 56 52 54 73 54 83 114 108 111 104 111 116 103 87 78 71 49 67 59 63 77 81 83 88 88 74 73 65
82 83 88 90 92 96 95 96 98 97 95 90 88 86 67 57 59 67 68 86 104 121 118 124 129 127 121 113 102 84 66 69 68 66 62 68 78 80 82 83 78 78 75
90 95 97 100 98 102 104 104 102 98 94 91 87 89 84 68 68 82 88 76 100 108 112 122 135 142 125 118 101 81 73 70 67 63 68 69 69 80 79 76 74 71 74
101 102 102 105 105 107 112 112 109 105 98 96 88 87 95 72 82 86 99 105 115 118 116 129 132 133 132 103 91 75 66 66 68 62 64 70 70 72 79 78 74 73 76
107 108 110 112 114 113 113 108 106 105 102 96 95 91 94 96 78 85 94 100 105 114 114 117 120 109 101 96 89 72 57 55 59 63 63 68 69 72 77 79 77 75 72
113 114 114 115 112 109 105 107 103 102 98 96 94 94 95 99 100 96 98 104 105 102 99 97 101 94 90 83 72 67 57 52 53 56 61 66 70 69 71 77 80 74 75
113 111 108 106 107 106 102 100 97 89 84 79 79 82 77 84 92 91 84 68 74 75 75 77 78 74 75 68 65 55 53 49 49 49 53 58 64 66 65 68 75 73 70
100 99 100 99 98 94 84 78 74 69 68 66 67 64 64 71 78 86 85 78 77 68 68 65 63 59 57 56 50 52 47 43 44 46 48 53 58 59 58 59 66 69 68
89 79 78 74 69 61 63 60 59 59 60 57 59 59 58 60 70 73 74 67 64 61 49 53 45 47 45 44 48 47 40 41 41 41 44 47 50 53 54 54 50 60 68
59 60 62 59 55 50 51 51 50 49 50 50 53 53 50 51 52 53 57 53 49 40 24 55 42 36 37 39 41 41 37 41 38 39 42 44 44 44 47 46 43 48 50
44 44 47 45 41 42 41 41 40 40 41 40 44 44 45 46 48 48 49 49 47 52 35 58 45 42 42 37 38 38 36 35 34 37 38 39 38 39 41 42 43 47 47
28 26 28 31 30 30 31 32 32 33 36 37 37 39 42 43 46 47 47 49 47 52 51 50 50 48 42 38 38 34 33 30 34 35 34 34 33 34 37 39 42 47 47
20 19 19 20 20 22 24 25 28 28 29 31 33 35 37 40 43 45 47 48 47 54 53 48 43 44 40 38 35 32 32 32 33 33 32 29 27 31 36 41 45 46 46
23 23 21 20 20 21 23 25 27 27 28 30 28 30 34 35 38 40 41 43 47 51 51 50 49 47 42 33 32 31 33 36 34 33 30 27 28 33 38 41 45 45 43
29 25 19 18 22 21 23 28 29 30 31 30 30 30 30 30 33 33 36 38 38 43 45 47 45 43 41 33 38 37 38 36 36 33 32 31 32 35 39 43 44 44 44
40 35 31 36 32 28 25 23 23 26 27 29 31 31 30 32 29 28 31 34 36 38 40 41 44 45 42 38 39 37 38 39 40 37 36 36 36 41 45 46 46 45 40
47 44 41 39 34 33 28 27 26 22 23 23 25 27 29 29 29 30 31 29 29 32 32 36 41 38 39 43 45 43 42 45 44 42 43 44 47 48 50 47 45 44 45
47 48 49 42 34 32 28 22 21 21 22 21 21 22 22 22 24 25 27 26 24 25 24 31 37 38 39 41 42 47 47 49 49 49 50 51 53 50 51 47 46 45 41
47 50 51 42 38 34 29 21 20 20 21 22 20 18 17 16 16 17 20 22 25 26 27 29 34 33 35 38 42 47 52 54 53 55 60 60 53 58 49 48 48 43 40
44 49 52 43 42 42 35 26 21 18 17 18 17 11 10 10 12 18 24 28 29 25 23 25 28 33 35 35 43 49 56 57 59 65 64 61 59 48 50 53 45 42 38
43 49 57 52 46 44 41 34 26 22 16 10 7 1 5 8 11 10 8 8 7 12 17 21 26 33 37 40 45 55 59 61 67 67 61 63 55 51 51 49 43 42 41
41 49 57 56 53 44 42 37 30 24 20 15 15 11 11 13 16 19 17 16 17 19 20 20 24 29 32 37 51 57 60 64 70 68 61 57 53 46 45 43 42 38 36
39 45 53 56 57 52 42 40 36 31 25 19 20 18 18 21 24 26 26 27 30 34 36 31 33 39 41 48 56 60 63 63 66 65 65 62 50 44 41 38 36 30 34
34 40 46 50 50 50 48 41 41 39 37 33 27 26 23 23 27 27 27 31 35 37 40 45 44 49 49 52 57 62 62 57 58 69 65 56 49 41 40 43 40 33 30
30 33 38 44 44 45 47 49 47 40 38 39 37 36 34 30 29 26 24 23 25 34 45 49 47 47 51 56 58 58 59 58 69 61 54 48 43 42 41 42 34 27 29
29 28 33 36 39 41 45 48 48 51 48 44 40 38 37 35 33 32 33 36 42 48 52 50 49 51 56 58 59 61 60 54 59 56 53 40 32 34 40 37 30 29 29
Wind_Direction
273 274 275 276 278 278 279 280 280 280 280 278 275 273 257 261 248 221 233 225 244 258 263 271 271 276 281 284 279 280 275 275 268 258 248 241 237 235 236 239 245 246 248
276 275 276 275 276 277 279 280 280 281 281 278 274 273 269 258 236 217 225 223 233 250 259 264 267 269 277 280 281 274 263 259 257 255 252 244 238 236 239 242 241 243 245
276 276 277 278 279 281 282 283 282 281 279 276 272 271 271 261 244 244 241 231 236 246 253 258 263 269 273 278 276 270 259 258 256 251 252 248 243 237 236 239 238 238 235
276 279 281 282 283 284 285 286 285 284 281 278 275 271 272 263 258 248 253 253 250 254 261 260 264 267 271 274 278 270 256 253 252 244 243 245 242 238 234 235 236 232 235
280 281 281 282 282 282 282 280 279 279 277 274 272 270 271 272 265 261 257 253 252 254 257 259 262 267 272 276 274 271 264 253 246 242 239 240 241 239 233 232 235 236 236
280 281 281 282 283 282 279 278 277 275 273 270 267 263 262 265 268 270 267 262 263 267 265 267 266 267 268 267 268 268 266 258 246 238 235 235 238 238 235 234 232 233 235
282 282 282 281 280 280 281 280 280 276 272 268 264 264 259 254 258 263 260 262 266 264 262 261 261 260 258 263 264 265 260 251 244 239 233 233 237 239 236 234 231 231 232
282 281 281 281 280 281 282 278 276 274 271 268 265 259 254 249 250 250 262 269 270 265 259 257 256 254 258 257 259 255 254 245 238 234 233 232 234 236 236 235 231 229 228
281 281 277 278 277 276 274 276 275 273 270 266 262 259 253 248 250 252 255 254 254 256 253 252 254 252 252 252 252 250 248 241 234 230 231 231 230 231 232 235 231 228 229
283 279 276 273 271 274 275 274 273 270 268 266 263 256 254 250 247 243 246 248 246 242 256 264 256 253 249 250 251 250 243 235 229 229 228 228 226 225 225 227 222 217 216
290 286 282 276 276 274 276 277 275 270 269 265 265 258 251 248 247 244 242 244 239 239 223 248 244 240 249 248 249 246 238 232 226 227 227 225 223 219 220 218 210 206 205
295 294 292 285 283 283 281 278 276 271 266 263 258 257 254 249 243 238 233 238 235 231 229 235 241 243 242 243 244 238 232 224 224 224 221 218 214 212 210 205 199 199 199
330 317 306 300 298 291 285 282 276 272 266 264 259 253 250 248 245 240 232 229 230 231 234 230 233 240 248 245 237 233 229 220 219 218 212 204 201 202 197 191 188 191 196
27 11 353 334 317 305 294 287 283 279 274 271 262 258 254 249 246 247 241 234 226 223 228 227 230 232 233 222 224 235 217 213 209 208 200 188 192 190 185 185 182 186 192
24 21 15 359 336 316 301 294 287 282 277 272 266 262 255 252 248 243 243 240 231 223 227 228 227 228 227 219 214 214 212 201 197 191 189 179 181 180 178 178 177 180 185
26 16 7 8 358 339 328 316 303 291 282 275 273 267 258 252 246 243 238 235 231 228 231 226 229 230 222 213 209 208 205 189 184 182 180 172 170 168 170 165 169 171 172
24 17 14 11 357 349 337 325 313 306 296 284 276 269 264 254 244 234 233 233 230 234 233 225 223 225 223 216 205 201 196 183 173 175 170 165 161 161 157 160 165 173 180
22 16 16 4 360 352 346 333 322 313 302 290 278 271 263 252 242 232 226 225 226 230 224 215 216 217 210 212 210 197 186 174 170 167 164 158 156 155 155 153 164 170 178
19 12 11 8 8 2 358 353 342 326 312 306 295 276 266 255 236 218 216 214 218 221 218 209 210 207 205 206 204 195 178 168 166 162 153 153 155 154 150 171 173 179 176
15 13 17 17 19 17 11 4 359 351 332 316 308 286 259 238 213 201 202 208 215 219 210 202 195 190 187 187 191 183 171 165 161 155 154 153 149 154 177 173 174 179 181
13 17 19 24 23 24 21 16 11 6 359 354 351 320 177 180 181 193 195 207 212 194 190 184 186 185 179 174 178 171 165 162 157 151 156 157 154 163 172 175 181 186 186
15 20 21 23 28 29 27 28 25 22 24 40 51 57 83 104 112 118 119 128 130 144 152 153 168 166 153 161 167 165 163 161 159 157 156 153 157 165 169 174 184 190 192
17 22 25 24 23 29 32 35 38 43 46 55 74 82 100 115 121 118 120 125 132 137 133 138 146 143 140 158 162 161 160 159 158 158 153 152 159 160 164 175 186 194 202
21 22 29 32 29 31 36 40 45 50 58 61 71 84 93 103 110 119 126 136 141 147 147 140 136 133 149 155 158 155 156 156 155 157 156 160 161 164 177 187 189 192 193
28 25 30 36 37 37 36 45 51 53 59 65 70 74 75 83 87 94 102 114 127 135 138 129 124 136 145 149 150 152 148 147 154 153 156 158 170 181 185 191 196 198 206
30 27 33 38 40 41 41 47 54 60 60 66 72 79 86 89 93 100 108 117 123 122 115 117 129 138 144 146 147 146 139 150 159 157 156 152 167 192 199 205 202 205 209
Height
10604 10602 10600 10603 10590 10588 10586 10586 10584 10584 10591 10602 10599 10607 10626 10632 10632 10644 10654 10678 10617 10582 10575 10578 10582 10584 10587 10594 10602 10615 10622 10635 10631 10627 10632 10636 10648 10660 10667 10677 10686 10697 10703
10582 10581 10577 10578 10575 10564 10564 10564 10562 10560 10562 10572 10570 10576 10596 10613 10615 10620 10624 10634 10573 10570 10561 10561 10563 10560 10569 10575 10581 10591 10597 10603 10606 10610 10609 10613 10623 10634 10646 10658 10668 10677 10688
10558 10552 10549 10545 10548 10537 10534 10533 10532 10534 10536 10542 10547 10546 10555 10578 10586 10577 10575 10581 10568 10550 10550 10551 10540 10542 10551 10560 10555 10559 10574 10574 10576 10584 10588 10592 10599 10613 10626 10636 10648 10661 10670
10529 10526 10523 10515 10515 10510 10501 10498 10494 10495 10503 10504 10514 10514 10507 10535 10543 10547 10537 10537 10539 10538 10536 10532 10531 10534 10530 10529 10528 10529 10540 10543 10549 10557 10565 10567 10576 10586 10604 10617 10627 10643 10652
10501 10496 10492 10486 10480 10481 10476 10474 10471 10467 10472 10481 10478 10483 10479 10478 10492 10503 10507 10510 10509 10508 10513 10516 10510 10510 10505 10500 10502 10504 10508 10513 10523 10531 10541 10548 10554 10566 10582 10596 10607 10621 10631
10475 10467 10459 10452 10446 10442 10444 10436 10441 10438 10440 10447 10450 10451 10454 10452 10458 10460 10469 10473 10477 10480 10482 10483 10475 10479 10477 10479 10480 10480 10485 10491 10499 10510 10520 10530 10537 10549 10564 10576 10588 10604 10614
10443 10433 10427 10420 10413 10407 10406 10406 10401 10404 10406 10413 10417 10416 10432 10436 10437 10432 10425 10438 10444 10445 10446 10447 10449 10455 10454 10457 10458 10461 10466 10473 10480 10491 10500 10513 10522 10533 10548 10557 10571 10586 10598
10411 10404 10397 10391 10387 10382 10380 10377 10375 10376 10377 10382 10386 10397 10403 10405 10408 10403 10402 10409 10414 10422 10423 10426 10427 10432 10435 10439 10441 10445 10453 10459 10465 10474 10484 10495 10507 10520 10530 10541 10554 10571 10584
10382 10378 10370 10365 10362 10360 10355 10355 10355 10353 10354 10360 10363 10369 10378 10387 10388 10388 10390 10402 10405 10406 10404 10410 10412 10415 10420 10424 10428 10433 10440 10446 10453 10463 10471 10481 10493 10506 10517 10526 10543 10554 10572
10360 10355 10349 10345 10343 10339 10338 10337 10337 10337 10337 10340 10344 10349 10354 10359 10367 10373 10376 10383 10387 10387 10392 10400 10399 10402 10406 10413 10417 10423 10431 10436 10444 10452 10461 10471 10482 10495 10504 10515 10530 10543 10562
10343 10338 10335 10332 10328 10327 10325 10323 10322 10322 10323 10325 10327 10332 10337 10341 10346 10352 10357 10362 10368 10371 10381 10379 10386 10390 10396 10403 10409 10415 10421 10431 10438 10445 10455 10463 10473 10483 10493 10505 10521 10536 10555
10336 10330 10326 10323 10320 10317 10315 10313 10312 10312 10312 10312 10315 10317 10321 10323 10328 10333 10339 10345 10348 10356 10362 10365 10372 10377 10384 10393 10401 10407 10413 10423 10430 10438 10447 10456 10466 10475 10486 10499 10514 10531 10546
10335 10329 10323 10318 10314 10311 10307 10304 10302 10301 10300 10300 10302 10304 10307 10309 10312 10316 10322 10328 10334 10343 10352 10357 10363 10368 10375 10386 10393 10398 10405 10414 10422 10433 10441 10450 10460 10470 10481 10494 10507 10523 10538
10336 10329 10322 10316 10311 10306 10302 10298 10296 10293 10292 10291 10291 10292 10294 10296 10300 10304 10310 10315 10322 10331 10339 10344 10350 10356 10363 10374 10383 10392 10398 10405 10417 10427 10436 10445 10456 10465 10476 10489 10503 10517 10531
10336 10328 10321 10314 10309 10303 10296 10290 10286 10282 10282 10282 10282 10282 10283 10285 10288 10294 10299 10304 10314 10321 10325 10333 10340 10348 10356 10365 10373 10379 10390 10400 10412 10422 10433 10441 10451 10462 10474 10487 10500 10513 10527
10339 10328 10320 10312 10304 10296 10288 10282 10277 10273 10271 10270 10270 10272 10274 10275 10279 10283 10287 10291 10299 10305 10312 10322 10329 10336 10345 10355 10363 10374 10385 10394 10406 10418 10429 10438 10450 10461 10473 10485 10499 10512 10524
10340 10332 10321 10310 10303 10293 10282 10275 10270 10265 10262 10260 10260 10260 10262 10265 10269 10274 10277 10283 10288 10293 10303 10312 10318 10326 10335 10342 10353 10365 10378 10388 10401 10415 10425 10436 10448 10460 10472 10486 10498 10509 10518
10341 10334 10319 10312 10301 10291 10279 10272 10265 10261 10257 10254 10252 10252 10253 10255 10259 10265 10270 10276 10282 10285 10291 10299 10307 10315 10324 10334 10347 10358 10371 10386 10398 10411 10423 10435 10449 10462 10473 10487 10497 10507 10515
10344 10335 10324 10312 10300 10289 10279 10270 10263 10258 10253 10248 10246 10245 10245 10248 10252 10258 10263 10268 10272 10276 10281 10289 10298 10307 10315 10325 10340 10354 10368 10382 10396 10410 10423 10437 10449 10463 10474 10486 10495 10504 10514
10350 10340 10328 10313 10300 10288 10278 10270 10263 10256 10250 10245 10242 10241 10241 10244 10248 10253 10256 10259 10263 10269 10278 10285 10292 10300 10309 10319 10335 10353 10367 10380 10396 10411 10423 10438 10451 10464 10473 10485 10494 10503 10511
10354 10345 10331 10318 10304 10292 10281 10271 10263 10257 10251 10246 10243 10241 10240 10242 10246 10252 10258 10263 10268 10273 10279 10286 10292 10300 10308 10319 10337 10353 10367 10381 10398 10411 10424 10438 10451 10464 10472 10484 10493 10499 10505
10360 10350 10337 10324 10312 10299 10290 10279 10269 10261 10255 10250 10247 10245 10245 10247 10250 10253 10257 10262 10268 10274 10280 10285 10296 10306 10314 10326 10341 10357 10370 10384 10399 10413 10428 10440 10456 10466 10473 10483 10490 10498 10503
10367 10357 10347 10334 10320 10309 10299 10290 10280 10271 10264 10259 10254 10253 10252 10253 10255 10257 10261 10266 10271 10278 10282 10288 10298 10305 10315 10333 10349 10362 10375 10389 10403 10419 10431 10444 10457 10466 10475 10483 10488 10493 10500
10374 10366 10358 10349 10337 10325 10314 10303 10293 10286 10278 10272 10269 10266 10266 10267 10266 10268 10271 10274 10278 10282 10287 10294 10302 10310 10327 10344 10358 10369 10383 10397 10410 10424 10435 10446 10457 10466 10473 10478 10485 10492 10499
10381 10375 10369 10361 10352 10342 10330 10318 10308 10302 10295 10289 10286 10283 10282 10283 10284 10284 10286 10289 10292 10294 10299 10307 10315 10329 10345 10358 10370 10382 10396 10406 10418 10431 10442 10453 10462 10467 10473 10479 10485 10492 10498
10388 10383 10378 10371 10364 10357 10350 10340 10330 10321 10315 10309 10305 10302 10300 10300 10300 10301 10302 10305 10307 10309 10311 10322 10335 10347 10359 10372 10382 10393 10406 10419 10428 10437 10447 10456 10461 10465 10474 10481 10486 10490 10493